Location: Unspecified
(0.0000°N, 0.0000°E)
Time: 22:13:05
(UTC+01:00)

Iridium 76 - Visible Passes

Search period start: 01 February 2015 00:00
Search period end: 11 February 2015 00:00
Orbit: 776 x 779 km, 86.4° (Epoch: 01 February)

Date Brightness Start Highest point End Pass type
(mag) Time Alt. Az. Time Alt. Az. Time Alt. Az.
01 Feb 7.3 21:32:42 24° S 21:32:42 24° S 21:34:42 10° S visible
02 Feb 6.7 20:58:21 29° SSE 20:58:21 29° SSE 21:01:02 10° SSE visible
03 Feb 6.9 20:23:50 20° ESE 20:23:50 20° ESE 20:26:30 10° SE visible
03 Feb 7.9 22:04:14 19° WSW 22:04:14 19° WSW 22:06:51 10° SW visible
04 Feb 6.4 21:29:29 46° W 21:29:33 46° W 21:34:32 10° SSW visible
05 Feb 5.3 20:54:22 44° NNE 20:56:05 79° E 21:01:18 10° S visible
06 Feb 6.1 20:18:27 13° NNE 20:22:35 35° E 20:27:20 10° SSE visible
06 Feb 8.4 22:00:51 10° WNW 22:03:15 13° W 22:05:15 10° WSW visible
07 Feb 7.0 19:46:07 10° NE 19:49:01 16° E 19:52:14 10° SE visible
07 Feb 7.3 21:25:10 10° NNW 21:29:39 28° W 21:34:02 10° SSW visible
08 Feb 5.9 20:50:59 10° N 20:56:08 64° W 21:01:18 10° S visible
09 Feb 5.5 20:17:34 10° NNE 20:22:39 57° E 20:27:47 10° SSE visible
10 Feb 6.5 19:44:58 10° NE 19:49:08 25° E 19:53:28 10° SE visible
10 Feb 8.1 21:26:13 10° NW 21:29:46 18° W 21:33:04 10° SW visible
